Location: Krasnoyarskiy Pitomnik
(51.1333°N, 71.6167°E)
Time: 21:25:42
(UTC+00:00)

A-11 Canister half - Pass Details

Date: 25 April 2024
Orbit: 1525 x 1683 km, 47.3° (Epoch: 19 May)

Event Time Altitude Azimuth Distance (km) Brightness Sun altitude
Rises 22:27:25 0° 201° (SSW) 4,813 - -12.5°
Exits shadow 22:29:43 - 195° (SSW) 4,190 10.8 -12.3°
Reaches altitude 10° 22:31:02 10° 191° (S) 3,854 10.6 -12.1°
Maximum altitude 22:39:02 29° 136° (SE) 2,688 10.3 -11.1°
Drops below altitude 10° 22:47:11 10° 82° (E) 3,942 12.2 -10.1°
Sets 22:50:54 0° 72° (ENE) 4,940 13.3 -9.7°
